Find Starlink 11739

NORAD ID: 64374 Int'l Des: 2025-127 Owner: SPXS Country: US Constellation: starlink operational
LEOCIRCULAR

当前视图

正在加载3D地球...

关于 Starlink 11739

正在加载描述...

即将过境

Passes for default location (London). Set your location on the main map for personalized predictions.

高度历史

Loading altitude history...

两行轨道根数

1 64374U 25127E 26146.55968292 .00164444 00000-0 12545-2 0 9998
2 64374 43.0010 334.7749 0002219 259.3382 100.7235 15.70939813 55753
Epoch: May 26, 2026 • Age: 10 hours

当前状态

高度 360.1 km
速度 7.70 km/s
星下点 42.15°N, 152.25°W
发射日期 Jun 13, 2025
运行时间 0.9 years
类型 internet

技术详情

分类 Payload
质量 960.00 kg
干质量 910.00 kg
总质量 960.00 kg
长度 0.30 m
直径 4.10 m
跨度 29.00 m
形状 Box + pan
制造商 SPXS
平台类型 Starlink V2MD
阶段状态 In Orbit
所有者/国家 SPXS/US

Most Searched